INMARSAT 3-F1

Last updated on Sat Aug 22 2026 00:02:55 GMT+0000 (Coordinated Universal Time)

1 23839U 96020A 26233.16486513 .00000086 00000+0 00000+0 0 9994 2 23839 10.7333 46.0163 0005902 129.8222 50.2776 0.99994836110901
UTC large
Height (km)
Speed (km/s)
/
Latitude / Longitude
Inclination (degrees)
Orbital Period (minutes)
Azimuth
Elevation
Range (km)
Doppler Factor

Next 0 passes for location: London (51.5072 / 0.1276)

No passes found over London.
INMARSAT 3-F1